[[{"header":{"parameterUnit":"m.s-1","parameterCategory":2,"la1":30.2991,"la2":30.254,"lo1":-89.0895,"lo2":-89.0444,"dy":0.0017,"dx":0.0017,"nx":28,"ny":28,"refTime":"2023-08-17T21:00:00:Z","depth":"0","parameterNumber":2,"parameterNumberName":"U-component_of_CURRENTS"},"data":[0,0,0,0,0,0,0,0,0,0,0,0,0,0,0,0,0,0,0,0,0,0,0,0,0,0,0,0,0,0,0,0,0,0,0,0,0,0,0,0,0,0,0,0,0,0,0,0,0,0,0,0,0,0,0,0,0,0,0.2006,0.2008,0,0.2121,0.2122,0.2123,0.2106,0.2105,0.2104,0.2103,0.2089,0.209,0.2091,0,0,0,0,0,0,0,0,0,0,0,0,0,0.1758,0.1762,0.2006,0.2008,0.201,0.2121,0.2122,0.2123,0.2107,0.2105,0.2103,0.2102,0.2089,0.209,0.2091,0,0,0,0,0,0,0,0,0,0,0,0,0,0.1861,0.1763,0.2005,0.2021,0.2024,0.2121,0.2122,0.2123,0.2107,0.2105,0.2103,0.2101,0.2088,0.209,0.2091,0.2136,0,0,0.2094,0.2095,0,0,0,0,0,0,0,0,0.1856,0.187,0.2016,0.202,0.2024,0.2104,0.203,0.2123,0.2107,0.2068,0.2103,0.21,0.2088,0.2089,0.2107,0.2135,0.2135,0.2095,0.2095,0.2096,0.2096,0,0,0,0,0,0,0,0.1848,0.1865,0.2044,0.2019,0.2023,0.2017,0.2029,0.2047,0.2079,0.2071,0.2072,0.2097,0.2088,0.2106,0.2106,0.2135,0.2095,0.2096,0.2096,0.2097,0.2167,0.2168,0,0,0,0,0,0,0.1853,0.1859,0.2041,0.2048,0.1941,0.2024,0.2037,0.2074,0.2082,0.2084,0.2098,0.2096,0.2104,0.2105,0.2105,0.2129,0.2096,0.2097,0.2098,0.2166,0.2167,0.2168,0,0,0,0,0,0,0.1847,0.1868,0.2036,0.196,0.1982,0.2031,0.2072,0.2077,0.2098,0.2105,0.2103,0.2114,0.2103,0.2104,0.2108,0.2129,0.2098,0.2099,0.2164,0.2166,0.2168,0.2195,0,0,0,0,0,0,0.184,0.1866,0.1889,0.1962,0.1987,0.2088,0.2075,0.2081,0.212,0.2117,0.2119,0.2115,0.2102,0.2106,0.2109,0.213,0.21,0.2163,0.2165,0.2167,0.2193,0.2198,0.2202,0,0,0,0,0,0.183,0.1879,0.189,0.1912,0.202,0.209,0.2101,0.2124,0.2122,0.2134,0.2126,0.2115,0.2122,0.2108,0.2111,0.2133,0.2162,0.2164,0.2167,0.2191,0.2197,0.2202,0,0,0,0,0,0,0.1791,0.1885,0.1898,0.1974,0.2023,0.209,0.2118,0.2135,0.2145,0.2135,0.2128,0.2125,0.2139,0.2137,0.2122,0.216,0.2142,0.2146,0.2159,0.2165,0.2169,0.2199,0.2101,0,0,0,0,0,0.1795,0.1853,0.1927,0.1989,0.2014,0.2067,0.2099,0.2114,0.2141,0.2145,0.2142,0.2144,0.2158,0.2158,0.2164,0.2188,0.222,0.2206,0.221,0.2214,0.2242,0.2313,0.2327,0.2177,0.2177,0.2176,0,0,0.1802,0.1861,0.1895,0.1983,0.2025,0.2064,0.2079,0.2133,0.2155,0.2142,0.2156,0.2161,0.2168,0.2185,0.2193,0.2182,0.2269,0.2217,0.222,0.2247,0.2318,0.2333,0.2346,0.2178,0.2178,0.2178,0,0,0.1836,0.1891,0.1938,0.1976,0.2043,0.2075,0.2091,0.2148,0.2158,0.218,0.2179,0.2203,0.2206,0.2228,0.2238,0.228,0.2292,0.2272,0.2318,0.2386,0.24,0.2412,0.2454,0.247,0.2272,0.2272,0.2272,0,0.1845,0.1904,0.196,0.2001,0.2036,0.2078,0.2115,0.2142,0.2185,0.2211,0.2178,0.2236,0.2235,0.2295,0.2301,0.2293,0.2323,0.2292,0.2394,0.2407,0.2419,0.2459,0.2477,0.2274,0.2274,0.2273,0.2273,0,0.1893,0.1935,0.1968,0.2029,0.2069,0.2114,0.2158,0.2186,0.2199,0.2231,0.2282,0.2287,0.233,0.2329,0.2325,0.2416,0.2405,0.2392,0.2381,0.2436,0.2474,0.2492,0.2276,0.2276,0.2275,0.2275,0,0,0.1942,0.1994,0.2003,0.2013,0.2085,0.212,0.217,0.2238,0.2274,0.2301,0.2353,0.2394,0.2416,0.2433,0.2438,0.2493,0.2591,0.248,0.2482,0.2523,0.2731,0.2699,0.2715,0.2593,0.2597,0.26,0.2716,0,0.1965,0.2014,0.2046,0.2085,0.211,0.216,0.2204,0.2265,0.2301,0.2349,0.2402,0.2437,0.2449,0.2459,0.2531,0.2571,0.2642,0.256,0.2671,0.2675,0.2642,0.2736,0.2659,0.2755,0.2733,0.2736,0.2738,0,0.1995,0.2022,0.2057,0.2099,0.2119,0.2145,0.2224,0.2268,0.2361,0.2393,0.2469,0.2495,0.2595,0.257,0.2727,0.2672,0.2725,0.2752,0.2757,0.2739,0.2678,0.2701,0.2788,0.2602,0.2765,0.2763,0.2761,0,0.1977,0.2027,0.2047,0.2063,0.2124,0.2151,0.2191,0.2282,0.2327,0.2419,0.2454,0.2573,0.2616,0.272,0.2797,0.277,0.2945,0.2909,0.294,0.2936,0.2901,0.2889,0.283,0.3046,0.3045,0.3045,0.3045,0,0.1989,0.2,0.2027,0.2039,0.2066,0.2121,0.2169,0.2233,0.2321,0.2381,0.2472,0.2534,0.2658,0.2759,0.2831,0.2949,0.299,0.2987,0.2985,0.2904,0.2891,0.2752,0.2692,0.3049,0.3048,0.3047,0.3047,0,0.1961,0.1984,0.2,0.2045,0.2054,0.2071,0.2139,0.2178,0.2272,0.2349,0.2379,0.2528,0.2667,0.2781,0.2936,0.2985,0.3009,0.3118,0.3,0.2984,0.2822,0.2768,0.2795,0.2741,0.318,0.318,0.318,0,0.1948,0.1951,0.1983,0.1984,0.1996,0.2024,0.2052,0.2144,0.219,0.2345,0.2381,0.2532,0.2644,0.2863,0.2979,0.312,0.3017,0.3106,0.3055,0.2835,0.2774,0.2715,0.2663,0.3012,0.301,0.3009,0.3009,0,0.1922,0.193,0.1945,0.1943,0.1953,0.1967,0.2008,0.2044,0.2164,0.2249,0.2379,0.2476,0.2691,0.2803,0.2972,0.3057,0.2944,0.309,0.2909,0.2697,0.259,0.2526,0.2883,0.3,0.3001,0.3001,0.3002,0.3002,0.1902,0.1894,0.1909,0.1896,0.1903,0.1906,0.1917,0.198,0.2063,0.2167,0.2309,0.2398,0.2567,0.2809,0.2882,0.2853,0.2905,0.2774,0.2747,0.272,0.2611,0.2939,0.3017,0.3018,0.3019,0.302,0.302,0,0.1871,0.186,0.1855,0.1846,0.1823,0.1845,0.1885,0.1894,0.1969,0.2044,0.2155,0.2244,0.2355,0.2463,0.2547,0.2487,0.2472,0.2402,0.2268,0.2252,0.2574,0.25,0.2411,0.2411,0.2411,0.2412,0.2412,0.2412,0.1861,0.1837,0.1821,0.1765,0.1751,0.1721,0.1735,0.1757,0.1793,0.1799,0.1797,0.1886,0.1999,0.209,0.2049,0.206,0.1922,0.1917,0.1885,0.2024,0.2053,0.2081,0.1991,0.1797,0.1797,0.1511,0.1508,0.1506]},{"header":{"parameterUnit":"m.s-1","parameterCategory":2,"la1":30.2991,"la2":30.254,"lo1":-89.0895,"lo2":-89.0444,"dy":0.0017,"dx":0.0017,"nx":28,"ny":28,"refTime":"2023-08-17T21:00:00:Z","depth":"0","parameterNumber":3,"parameterNumberName":"V-component_of_CURRENTS"},"data":[0,0,0,0,0,0,0,0,0,0,0,0,0,0,0,0,0,0,0,0,0,0,0,0,0,0,0,0,0,0,0,0,0,0,0,0,0,0,0,0,0,0,0,0,0,0,0,0,0,0,0,0,0,0,0,0,0,0,-0.0469,-0.047,0,-0.0505,-0.0506,-0.0506,-0.0527,-0.0527,-0.0527,-0.0527,-0.0566,-0.0567,-0.0568,0,0,0,0,0,0,0,0,0,0,0,0,0,-0.0467,-0.0467,-0.0469,-0.047,-0.047,-0.0505,-0.0506,-0.0506,-0.0527,-0.0527,-0.0527,-0.0527,-0.0566,-0.0567,-0.0568,0,0,0,0,0,0,0,0,0,0,0,0,0,-0.0482,-0.0467,-0.0469,-0.0485,-0.0487,-0.0505,-0.0506,-0.0506,-0.0527,-0.0527,-0.0527,-0.0527,-0.0566,-0.0567,-0.0568,-0.0574,0,0,-0.0573,-0.0573,0,0,0,0,0,0,0,0,-0.0481,-0.0482,-0.0482,-0.0484,-0.0486,-0.0512,-0.052,-0.0529,-0.0527,-0.0511,-0.0527,-0.0527,-0.0549,-0.0551,-0.0557,-0.0575,-0.0577,-0.0573,-0.0574,-0.0574,-0.0575,0,0,0,0,0,0,0,-0.048,-0.048,-0.0483,-0.0483,-0.0485,-0.0507,-0.0509,-0.0522,-0.0528,-0.0512,-0.0514,-0.0519,-0.055,-0.0556,-0.0558,-0.0578,-0.0573,-0.0574,-0.0575,-0.0575,-0.0572,-0.0571,0,0,0,0,0,0,-0.0473,-0.0479,-0.0482,-0.0484,-0.0484,-0.0507,-0.0509,-0.0503,-0.0528,-0.0532,-0.0519,-0.052,-0.0553,-0.0557,-0.056,-0.0533,-0.0574,-0.0575,-0.0576,-0.0573,-0.0572,-0.0571,0,0,0,0,0,0,-0.0473,-0.0473,-0.048,-0.0484,-0.0486,-0.0507,-0.05,-0.0504,-0.0507,-0.0533,-0.0537,-0.0518,-0.0553,-0.0558,-0.0557,-0.0536,-0.0576,-0.0577,-0.0574,-0.0573,-0.0571,-0.0502,0,0,0,0,0,0,-0.0472,-0.0472,-0.0467,-0.0483,-0.0486,-0.0482,-0.05,-0.0504,-0.051,-0.0512,-0.0533,-0.0537,-0.0554,-0.0555,-0.0558,-0.0539,-0.0579,-0.0575,-0.0574,-0.0572,-0.0505,-0.0498,-0.0492,0,0,0,0,0,-0.0472,-0.046,-0.0467,-0.0467,-0.0478,-0.0482,-0.0485,-0.05,-0.051,-0.0505,-0.0516,-0.0537,-0.0546,-0.0555,-0.056,-0.054,-0.0576,-0.0574,-0.0572,-0.0508,-0.05,-0.0492,0,0,0,0,0,0,-0.0457,-0.0462,-0.0469,-0.0459,-0.0467,-0.0485,-0.0486,-0.0496,-0.0502,-0.0501,-0.0526,-0.0531,-0.0521,-0.0541,-0.055,-0.0534,-0.0564,-0.0563,-0.0514,-0.0506,-0.05,-0.0495,-0.058,0,0,0,0,0,-0.0451,-0.0443,-0.0454,-0.0447,-0.0449,-0.0467,-0.0472,-0.0478,-0.0486,-0.049,-0.0504,-0.0515,-0.0517,-0.052,-0.0528,-0.0522,-0.0546,-0.0512,-0.0505,-0.0499,-0.0498,-0.0523,-0.0519,-0.0564,-0.0564,-0.0564,0,0,-0.0441,-0.0447,-0.044,-0.0444,-0.0453,-0.0444,-0.047,-0.0468,-0.0453,-0.0493,-0.0478,-0.0494,-0.051,-0.0498,-0.0496,-0.0511,-0.0495,-0.0497,-0.0491,-0.0494,-0.0521,-0.0516,-0.0513,-0.0563,-0.0563,-0.0563,0,0,-0.0423,-0.0423,-0.0413,-0.0415,-0.0424,-0.0426,-0.0422,-0.0432,-0.0429,-0.0419,-0.0438,-0.044,-0.045,-0.0454,-0.0457,-0.0422,-0.046,-0.0424,-0.0387,-0.0411,-0.0407,-0.0405,-0.0412,-0.0411,-0.0421,-0.042,-0.042,0,-0.042,-0.04,-0.0411,-0.0406,-0.0401,-0.0413,-0.0397,-0.0392,-0.0397,-0.0391,-0.0403,-0.0413,-0.0426,-0.0412,-0.0395,-0.0406,-0.0425,-0.0414,-0.0402,-0.0401,-0.0399,-0.0408,-0.0407,-0.0417,-0.0417,-0.0418,-0.0418,0,-0.039,-0.0379,-0.0373,-0.0364,-0.0359,-0.0344,-0.0338,-0.0326,-0.0325,-0.0327,-0.0316,-0.0335,-0.0345,-0.0343,-0.0356,-0.0347,-0.0363,-0.0391,-0.0422,-0.039,-0.0401,-0.0402,-0.0412,-0.0413,-0.0414,-0.0415,0,0,-0.0379,-0.0357,-0.0356,-0.0341,-0.0332,-0.0321,-0.029,-0.0269,-0.0247,-0.0253,-0.0236,-0.0238,-0.0262,-0.0269,-0.0289,-0.0303,-0.03,-0.0338,-0.0341,-0.0345,-0.0343,-0.0325,-0.0324,-0.0331,-0.0331,-0.0331,-0.0348,0,-0.0357,-0.0328,-0.0323,-0.0284,-0.0263,-0.0258,-0.0227,-0.021,-0.02,-0.0185,-0.0203,-0.0198,-0.0229,-0.0234,-0.0251,-0.0288,-0.0302,-0.0292,-0.0374,-0.0376,-0.0364,-0.0325,-0.0263,-0.0271,-0.0349,-0.0349,-0.0349,0,-0.0329,-0.0313,-0.0273,-0.0234,-0.0225,-0.0202,-0.0157,-0.0132,-0.0115,-0.0114,-0.0122,-0.0142,-0.0151,-0.0191,-0.024,-0.0234,-0.0282,-0.0315,-0.0318,-0.0329,-0.036,-0.032,-0.0271,-0.0302,-0.0351,-0.0351,-0.0351,0,-0.0306,-0.0274,-0.0235,-0.0224,-0.0186,-0.0163,-0.014,-0.0113,-0.0084,-0.0077,-0.0064,-0.0091,-0.01,-0.0162,-0.0218,-0.0236,-0.0276,-0.0315,-0.0343,-0.0342,-0.032,-0.0317,-0.0312,-0.0361,-0.0361,-0.0361,-0.0361,0,-0.0277,-0.0249,-0.022,-0.02,-0.0144,-0.0137,-0.0081,-0.0063,-0.004,-0.0001,-0.0033,-0.001,-0.0097,-0.0125,-0.0196,-0.0254,-0.0262,-0.0325,-0.0344,-0.0291,-0.0285,-0.0338,-0.0387,-0.0361,-0.0361,-0.0361,-0.0361,0,-0.0255,-0.0238,-0.019,-0.0148,-0.0131,-0.0092,-0.004,-0.0002,0.0009,0.0057,0.0059,0.0048,0.0017,-0.0058,-0.0147,-0.0214,-0.0306,-0.0307,-0.0226,-0.0235,-0.0298,-0.0346,-0.0439,-0.0461,-0.0342,-0.0342,-0.0342,0,-0.0239,-0.0212,-0.015,-0.0111,-0.0091,-0.0038,0.0002,0.0023,0.0057,0.0104,0.0128,0.0116,0.0133,0.0028,-0.0091,-0.0197,-0.028,-0.023,-0.0259,-0.0277,-0.0345,-0.0424,-0.0441,-0.0196,-0.0195,-0.0194,-0.0193,0,-0.0202,-0.0179,-0.0138,-0.0065,-0.0016,0.0048,0.0099,0.0131,0.0161,0.0213,0.0269,0.029,0.0199,0.0147,0.0001,-0.0091,-0.0252,-0.021,-0.0253,-0.0243,-0.0306,-0.0342,-0.0204,-0.0182,-0.0183,-0.0184,-0.0184,-0.0185,-0.0174,-0.013,-0.0074,-0.0009,0.0052,0.0128,0.019,0.0247,0.0324,0.0428,0.0408,0.0501,0.0376,0.0197,0.0058,-0.0125,-0.0203,-0.0171,-0.023,-0.031,-0.0322,-0.0149,-0.0138,-0.0138,-0.0139,-0.014,-0.014,0,-0.0135,-0.0086,-0.0017,0.0064,0.0133,0.0159,0.0254,0.0335,0.0447,0.0559,0.0643,0.0686,0.0543,0.0339,0.0061,-0.0097,-0.0201,-0.0179,-0.0261,-0.0281,-0.0127,-0.0106,-0.0057,-0.0057,-0.0057,-0.0057,-0.0057,-0.0057,-0.0107,-0.0037,-0.0003,0.0114,0.0174,0.0301,0.0367,0.0498,0.0612,0.0803,0.0913,0.0958,0.0835,0.0305,-0.0026,-0.0126,-0.0279,-0.031,-0.0402,-0.0264,-0.0267,-0.0271,-0.026,-0.0244,-0.0244,-0.0513,-0.0515,-0.0517]}],[{"header":{"parameterUnit":"m.s-1","parameterCategory":2,"la1":30.2991,"la2":30.254,"lo1":-89.0895,"lo2":-89.0444,"dy":0.0017,"dx":0.0017,"nx":28,"ny":28,"refTime":"2023-08-17T21:00:00:Z","depth":"2","parameterNumber":2,"parameterNumberName":"U-component_of_CURRENTS"},"data":[0,0,0,0,0,0,0,0,0,0,0,0,0,0,0,0,0,0,0,0,0,0,0,0,0,0,0,0,0,0,0,0,0,0,0,0,0,0,0,0,0,0,0,0,0,0,0,0,0,0,0,0,0,0,0,0,0,0,0.0019,0.0017,0,-0.01,-0.0101,-0.0102,-0.0075,-0.0073,-0.0071,-0.0069,0.0066,0.0067,0.0069,0,0,0,0,0,0,0,0,0,0,0,0,0,0.0273,0.0268,0.0019,0.0017,0.0016,-0.0099,-0.0101,-0.0103,-0.0076,-0.0073,-0.007,-0.0068,0.0065,0.0067,0.0069,0,0,0,0,0,0,0,0,0,0,0,0,0,0.0159,0.0266,0.0019,0.0016,0.0014,-0.0099,-0.0101,-0.0103,-0.0076,-0.0073,-0.0069,-0.0066,0.0065,0.0067,0.0069,0.0014,0,0,0.0076,0.0076,0,0,0,0,0,0,0,0,0.0165,0.0149,0.0018,0.0016,0.0014,-0.0069,0.0038,-0.0051,-0.0077,-0.0042,-0.0069,-0.0065,0.0042,0.0046,0.0012,0.002,0.0026,0.0076,0.0077,0.0078,0.0079,0,0,0,0,0,0,0,0.0173,0.0155,-0.0028,0.0016,0.0013,0.0022,0.0009,0.002,-0.0014,-0.0045,-0.0043,-0.0057,0.0043,0.0009,0.0016,0.0028,0.0076,0.0078,0.0079,0.008,0.0346,0.0351,0,0,0,0,0,0,0.0183,0.0161,-0.0025,-0.0032,0.01,0.0015,0.0001,-0.0046,-0.0019,-0.0014,-0.006,-0.0055,0.0004,0.0013,0.0021,0.0232,0.0078,0.008,0.0081,0.034,0.0347,0.0353,0,0,0,0,0,0,0.0188,0.0166,-0.002,0.0065,0.0042,0.0007,-0.0046,-0.005,-0.0014,-0.0033,-0.0022,-0.0011,0.0007,0.0018,0.0132,0.0228,0.0081,0.0083,0.0333,0.0342,0.035,0.048,0,0,0,0,0,0,0.0195,0.0168,0.0146,0.0064,0.0038,-0.0035,-0.0049,-0.0055,-0.0032,-0.0025,0.0011,0.0022,0.0011,0.0129,0.0134,0.0229,0.0085,0.0326,0.0337,0.0348,0.0468,0.0492,0.0512,0,0,0,0,0,0.0204,0.0164,0.0144,0.0123,0.0004,-0.0034,-0.0045,-0.0059,-0.0032,-0.0012,0.0051,0.0025,0.0203,0.0134,0.0139,0.0237,0.0321,0.0334,0.0347,0.0459,0.0487,0.0512,0,0,0,0,0,0,0.0252,0.0159,0.0138,0.0067,0.0045,-0.0027,-0.0008,-0.0022,0.0028,0.0077,0.0072,0.0088,0.0236,0.0222,0.0147,0.0356,0.0268,0.0282,0.0352,0.0378,0.04,0.0325,0.0086,0,0,0,0,0,0.0249,0.0203,0.0134,0.0085,0.0097,0.0058,0.0047,0.0043,0.0064,0.0088,0.0154,0.0224,0.0274,0.0318,0.0375,0.0457,0.0425,0.0538,0.056,0.0578,0.0529,0.0582,0.0602,0.0396,0.0396,0.0396,0,0,0.024,0.0196,0.016,0.0096,0.0093,0.0131,0.0065,0.0086,0.0129,0.01,0.0263,0.0312,0.0321,0.0441,0.0506,0.0449,0.0637,0.0594,0.0609,0.0548,0.0597,0.0616,0.0633,0.0405,0.0403,0.0402,0,0,0.0253,0.0197,0.0196,0.0206,0.0214,0.0203,0.0234,0.0251,0.0281,0.0394,0.0409,0.0497,0.0623,0.0618,0.0624,0.0792,0.0762,0.0871,0.0899,0.0956,0.097,0.0983,0.1015,0.1028,0.0868,0.0868,0.0868,0,0.0264,0.024,0.0196,0.0246,0.026,0.0266,0.0312,0.0338,0.0406,0.044,0.0498,0.0667,0.0682,0.0732,0.0796,0.0831,0.0863,0.0788,0.0976,0.0987,0.0997,0.1026,0.104,0.0876,0.0875,0.0874,0.0873,0,0.0305,0.0313,0.0342,0.0401,0.0411,0.0458,0.0486,0.0562,0.0641,0.0675,0.0813,0.0842,0.0917,0.0967,0.0918,0.101,0.1014,0.1004,0.0886,0.1024,0.1049,0.1061,0.0887,0.0884,0.0882,0.088,0,0,0.0309,0.0345,0.0377,0.0416,0.0496,0.0508,0.0606,0.0658,0.0721,0.0867,0.0934,0.1032,0.1067,0.107,0.1058,0.1076,0.1181,0.1073,0.1073,0.1062,0.132,0.1294,0.1303,0.1233,0.1235,0.1236,0.1323,0,0.0383,0.0444,0.0455,0.0573,0.0624,0.065,0.072,0.0779,0.0859,0.0963,0.0992,0.1099,0.1102,0.114,0.1174,0.1163,0.1212,0.1157,0.1221,0.1221,0.1145,0.1315,0.1172,0.1236,0.1333,0.1335,0.1336,0,0.049,0.0494,0.0557,0.062,0.065,0.0738,0.0817,0.087,0.0972,0.1029,0.1132,0.1184,0.1226,0.1219,0.1295,0.1281,0.1311,0.1307,0.1312,0.1223,0.1214,0.111,0.1251,0.1354,0.1352,0.1351,0.135,0,0.0531,0.0616,0.0639,0.0671,0.0727,0.078,0.0846,0.0933,0.0983,0.1084,0.1167,0.1243,0.1312,0.1351,0.1399,0.1362,0.1484,0.1431,0.144,0.1438,0.1283,0.1264,0.1503,0.1503,0.1503,0.1503,0.1503,0,0.0612,0.0675,0.0679,0.0705,0.0795,0.0822,0.094,0.0995,0.1077,0.1173,0.123,0.1319,0.1362,0.1453,0.1445,0.1507,0.1558,0.145,0.1468,0.1336,0.1321,0.1374,0.1358,0.1506,0.1505,0.1505,0.1504,0,0.0684,0.0672,0.0741,0.0783,0.0824,0.0905,0.1039,0.1099,0.1173,0.1283,0.1327,0.143,0.154,0.159,0.1645,0.1594,0.161,0.1632,0.1466,0.146,0.1496,0.1487,0.1587,0.1587,0.1587,0.1587,0.1587,0,0.0707,0.0727,0.0805,0.0847,0.0897,0.1009,0.1074,0.1164,0.1214,0.1361,0.1405,0.1563,0.1642,0.1725,0.1674,0.1671,0.1723,0.1527,0.139,0.1503,0.151,0.15,0.1491,0.1259,0.1257,0.1255,0.1253,0,0.0736,0.0779,0.0786,0.0889,0.0986,0.1061,0.1171,0.1229,0.1305,0.14,0.1516,0.1585,0.1677,0.1599,0.161,0.1577,0.149,0.1478,0.1688,0.1258,0.1201,0.1205,0.1206,0.1233,0.1235,0.1237,0.1238,0.1238,0.0755,0.0796,0.0817,0.0942,0.101,0.1082,0.1149,0.1213,0.1297,0.1364,0.1502,0.1529,0.1473,0.1387,0.1383,0.1373,0.1421,0.1297,0.1301,0.1308,0.1253,0.1198,0.1219,0.1221,0.1222,0.1224,0.1225,0,0.0827,0.0843,0.0878,0.0978,0.1033,0.1099,0.1161,0.1182,0.1258,0.1281,0.1364,0.1227,0.1163,0.1185,0.1102,0.1057,0.1025,0.1046,0.0976,0.0995,0.1013,0.094,0.0825,0.0824,0.0823,0.0822,0,0,0.0825,0.087,0.089,0.0968,0.104,0.1082,0.1109,0.1128,0.1122,0.1095,0.1056,0.1066,0.1081,0.0901,0.0884,0.0861,0.0932,0.0843,0.1156,0.1091,0.1107,0.1141,0.1049,0,0,0,0,0]},{"header":{"parameterUnit":"m.s-1","parameterCategory":2,"la1":30.2991,"la2":30.254,"lo1":-89.0895,"lo2":-89.0444,"dy":0.0017,"dx":0.0017,"nx":28,"ny":28,"refTime":"2023-08-17T21:00:00:Z","depth":"2","parameterNumber":3,"parameterNumberName":"V-component_of_CURRENTS"},"data":[0,0,0,0,0,0,0,0,0,0,0,0,0,0,0,0,0,0,0,0,0,0,0,0,0,0,0,0,0,0,0,0,0,0,0,0,0,0,0,0,0,0,0,0,0,0,0,0,0,0,0,0,0,0,0,0,0,0,0.0231,0.0232,0,0.0231,0.023,0.023,0.0204,0.0204,0.0204,0.0204,0.0005,-0.0001,-0.0006,0,0,0,0,0,0,0,0,0,0,0,0,0,0.0071,0.0074,0.0231,0.0232,0.0233,0.0231,0.023,0.0229,0.0204,0.0204,0.0204,0.0204,0.0006,-0.0,-0.0007,0,0,0,0,0,0,0,0,0,0,0,0,0,0.0105,0.0075,0.0231,0.0226,0.0226,0.0231,0.023,0.0229,0.0204,0.0204,0.0204,0.0204,0.0008,0.0001,-0.0007,-0.0061,0,0,-0.0032,-0.0036,0,0,0,0,0,0,0,0,0.0103,0.011,0.0226,0.0227,0.0227,0.0225,0.0101,0.0125,0.0204,0.0203,0.0204,0.0204,0.0065,0.0052,0.0043,-0.007,-0.0079,-0.0033,-0.0038,-0.0041,-0.0044,0,0,0,0,0,0,0,0.0101,0.0109,0.0222,0.0227,0.0228,0.0177,0.0182,0.0105,0.0123,0.0203,0.0204,0.0217,0.0063,0.0051,0.0037,-0.0082,-0.0033,-0.004,-0.0045,-0.0048,-0.025,-0.0251,0,0,0,0,0,0,0.0126,0.0108,0.0223,0.0223,0.0174,0.0181,0.0186,0.0218,0.0128,0.0119,0.0217,0.0216,0.0065,0.0047,0.003,-0.0038,-0.0041,-0.0049,-0.0054,-0.025,-0.025,-0.0251,0,0,0,0,0,0,0.0123,0.0137,0.0223,0.017,0.0179,0.0185,0.022,0.0219,0.0198,0.0142,0.0127,0.0198,0.0064,0.0041,-0.0047,-0.0046,-0.0053,-0.006,-0.0249,-0.025,-0.025,-0.0175,0,0,0,0,0,0,0.0118,0.0136,0.0142,0.0173,0.0184,0.0229,0.0221,0.0219,0.0211,0.0209,0.0121,0.0104,0.0062,-0.0034,-0.0055,-0.0057,-0.0066,-0.0248,-0.0249,-0.025,-0.0177,-0.0173,-0.017,0,0,0,0,0,0.0113,0.0153,0.0143,0.0156,0.0201,0.0231,0.0229,0.0227,0.021,0.0205,0.0138,0.0106,-0.0053,-0.0042,-0.0066,-0.007,-0.0248,-0.0249,-0.025,-0.0178,-0.0174,-0.017,0,0,0,0,0,0,0.0088,0.0156,0.0145,0.0201,0.0208,0.023,0.0222,0.0219,0.0165,0.0147,0.0083,0.0061,-0.0013,-0.0059,-0.0044,-0.013,-0.0151,-0.0157,-0.0088,-0.0084,-0.0081,-0.0026,-0.0073,0,0,0,0,0,0.0086,0.0139,0.0165,0.0207,0.0199,0.0197,0.0199,0.0204,0.0179,0.0157,0.0082,0.0012,-0.0034,-0.0073,-0.0139,-0.0199,-0.0214,-0.0214,-0.021,-0.0207,-0.0178,-0.0222,-0.0219,-0.0254,-0.0254,-0.0254,0,0,0.011,0.0134,0.0176,0.0204,0.0194,0.0204,0.0196,0.0208,0.0217,0.0137,0.0071,0.0005,-0.0051,-0.0106,-0.0142,-0.0146,-0.0202,-0.0208,-0.0204,-0.0177,-0.0223,-0.0219,-0.0216,-0.0255,-0.0255,-0.0255,0,0,0.0167,0.017,0.0217,0.0209,0.0206,0.0205,0.0207,0.0192,0.0176,0.0119,0.0077,0.0018,-0.0097,-0.0109,-0.0128,-0.015,-0.0188,-0.0184,-0.0118,-0.0161,-0.0158,-0.0155,-0.0148,-0.0145,-0.0174,-0.0174,-0.0174,0,0.0173,0.0232,0.023,0.0234,0.0242,0.0205,0.0234,0.0211,0.0169,0.0159,0.0101,-0.0017,-0.0081,-0.0082,-0.0082,-0.0137,-0.0158,-0.0125,-0.0153,-0.0151,-0.0149,-0.0143,-0.0141,-0.0171,-0.0171,-0.0171,-0.0172,0,0.0247,0.027,0.0281,0.0285,0.0289,0.0304,0.0284,0.0257,0.0209,0.0184,0.0129,0.004,-0.0014,-0.0044,-0.0072,-0.0077,-0.0093,-0.0148,-0.0154,-0.0141,-0.0136,-0.0135,-0.0166,-0.0167,-0.0168,-0.0169,0,0,0.0289,0.0341,0.0328,0.0334,0.0317,0.0331,0.0338,0.0344,0.0351,0.0252,0.0257,0.0167,0.0105,0.0082,0.0031,0.0003,-0.0005,-0.0059,-0.0064,-0.0032,-0.0069,-0.0042,-0.0039,-0.0078,-0.0078,-0.0078,-0.0061,0,0.0324,0.0395,0.0403,0.0429,0.0445,0.0423,0.0441,0.0435,0.0393,0.036,0.029,0.0235,0.0159,0.0126,0.0089,0.0013,-0.0004,-0.0002,-0.0103,-0.0104,-0.0067,-0.0038,-0.0053,-0.0036,-0.006,-0.006,-0.006,0,0.0334,0.0391,0.0467,0.0514,0.0515,0.0509,0.0532,0.0555,0.0525,0.0493,0.0438,0.0356,0.0315,0.0221,0.013,0.0127,0.0046,-0.0015,-0.0018,-0.0013,-0.0076,-0.0062,-0.0034,-0.0059,-0.0059,-0.0059,-0.0059,0,0.0338,0.0398,0.0477,0.0481,0.0539,0.0544,0.0561,0.0564,0.0586,0.0556,0.0536,0.0469,0.0408,0.0307,0.0165,0.0139,0.0061,0.0001,-0.0035,-0.0033,-0.007,-0.0071,-0.006,-0.006,-0.006,-0.006,-0.006,0,0.0345,0.0378,0.0461,0.0485,0.0529,0.0557,0.0585,0.0603,0.0622,0.0643,0.0577,0.0574,0.0413,0.0334,0.0216,0.0111,0.0091,0.0008,-0.0026,-0.0043,-0.0041,-0.0093,-0.0097,-0.006,-0.006,-0.006,-0.006,0,0.0312,0.0386,0.0442,0.0517,0.0523,0.0536,0.0574,0.0609,0.0631,0.066,0.0646,0.0626,0.0549,0.0408,0.0262,0.0176,0.0071,0.0029,0.0053,0.0023,0.0006,0.0005,0.0027,0.0028,0.0029,0.003,0.003,0,0.0321,0.0361,0.0441,0.047,0.0477,0.0505,0.0539,0.0584,0.0634,0.0697,0.0722,0.0667,0.0665,0.0508,0.0315,0.0159,0.0103,0.0065,0.0017,0.0051,0.0015,0.0013,0.0011,0.0001,0.0002,0.0002,0.0002,0,0.033,0.0346,0.0428,0.0474,0.0485,0.0543,0.0588,0.0624,0.0707,0.0759,0.0851,0.0864,0.0713,0.0566,0.035,0.024,0.0096,0.007,0.0073,-0.0012,0.0029,-0.0007,-0.0009,0.0005,0.0005,0.0004,0.0004,0.0004,0.0331,0.0373,0.0462,0.0485,0.053,0.0587,0.0641,0.0727,0.0832,0.0925,0.0938,0.0936,0.0741,0.0461,0.03,0.0118,0.0129,0.0055,0.0052,0.005,0.005,0.0091,0.0081,0.0082,0.0082,0.0082,0.0082,0,0.0308,0.0379,0.0461,0.0525,0.0583,0.0579,0.0701,0.0788,0.0924,0.0953,0.1027,0.0819,0.0671,0.045,0.0182,0.0065,0.0029,0.003,-0.0011,-0.0012,-0.0013,-0.0019,-0.0004,-0.0005,-0.0006,-0.0006,0,0,0.0327,0.0398,0.0453,0.0551,0.0588,0.0697,0.077,0.0892,0.0965,0.1021,0.0967,0.089,0.0653,0.0419,0.0245,0.0121,0.009,0.0104,0.0187,0.016,0.0161,0.0017,0.0011,0,0,0,0,0]}],[{"header":{"parameterUnit":"m.s-1","parameterCategory":2,"la1":30.2991,"la2":30.254,"lo1":-89.0895,"lo2":-89.0444,"dy":0.0017,"dx":0.0017,"nx":28,"ny":28,"refTime":"2023-08-17T21:00:00:Z","depth":"4","parameterNumber":2,"parameterNumberName":"U-component_of_CURRENTS"},"data":[0,0,0,0,0,0,0,0,0,0,0,0,0,0,0,0,0,0,0,0,0,0,0,0,0,0,0,0,0,0,0,0,0,0,0,0,0,0,0,0,0,0,0,0,0,0,0,0,0,0,0,0,0,0,0,0,0,0,-0.0499,-0.0499,0,-0.0527,-0.0527,-0.0527,-0.0557,-0.0557,-0.0558,-0.0558,-0.0632,-0.0633,-0.0635,0,0,0,0,0,0,0,0,0,0,0,0,0,-0.0495,-0.0495,-0.0499,-0.0499,-0.05,-0.0527,-0.0527,-0.0528,-0.0557,-0.0557,-0.0558,-0.0559,-0.0631,-0.0633,-0.0635,0,0,0,0,0,0,0,0,0,0,0,0,0,-0.0506,-0.0495,-0.0499,-0.0518,-0.052,-0.0527,-0.0527,-0.0528,-0.0557,-0.0558,-0.0558,-0.0559,-0.0631,-0.0633,-0.0635,-0.0634,0,0,-0.0642,-0.0643,0,0,0,0,0,0,0,0,-0.0506,-0.0506,-0.0515,-0.0517,-0.0519,-0.054,-0.0553,-0.0566,-0.0557,-0.0542,-0.0558,-0.0559,-0.0605,-0.061,-0.0611,-0.0638,-0.0641,-0.0642,-0.0644,-0.0645,-0.0645,0,0,0,0,0,0,0,-0.0505,-0.0505,-0.0509,-0.0515,-0.0518,-0.0534,-0.0536,-0.0555,-0.0569,-0.0543,-0.0546,-0.055,-0.0607,-0.0609,-0.0614,-0.0642,-0.0642,-0.0644,-0.0646,-0.0646,-0.0751,-0.0753,0,0,0,0,0,0,-0.0501,-0.0504,-0.0508,-0.051,-0.0515,-0.0534,-0.0536,-0.0532,-0.0568,-0.0574,-0.0549,-0.0551,-0.0605,-0.0611,-0.0616,-0.0718,-0.0645,-0.0647,-0.0648,-0.075,-0.0752,-0.0753,0,0,0,0,0,0,-0.0501,-0.0501,-0.0507,-0.0509,-0.0511,-0.0533,-0.0528,-0.0532,-0.0556,-0.0573,-0.058,-0.0572,-0.0606,-0.0613,-0.0634,-0.0718,-0.0648,-0.065,-0.0748,-0.075,-0.0752,-0.0858,0,0,0,0,0,0,-0.05,-0.05,-0.0497,-0.0509,-0.0511,-0.0522,-0.0528,-0.0532,-0.0557,-0.056,-0.0594,-0.06,-0.0607,-0.063,-0.0636,-0.0719,-0.0651,-0.0746,-0.0749,-0.0752,-0.0852,-0.0863,-0.0872,0,0,0,0,0,-0.05,-0.0494,-0.0497,-0.0498,-0.0506,-0.0522,-0.0525,-0.0542,-0.0557,-0.0567,-0.058,-0.06,-0.0654,-0.0632,-0.0639,-0.0725,-0.0745,-0.0748,-0.0751,-0.0848,-0.0861,-0.0872,0,0,0,0,0,0,-0.0495,-0.0497,-0.05,-0.0496,-0.0513,-0.0528,-0.0538,-0.0554,-0.0572,-0.059,-0.0598,-0.0604,-0.0659,-0.066,-0.0637,-0.076,-0.0712,-0.0716,-0.0783,-0.0795,-0.0805,-0.0809,-0.0653,0,0,0,0,0,-0.0491,-0.0486,-0.0497,-0.0498,-0.0506,-0.0526,-0.0537,-0.0562,-0.0578,-0.0589,-0.0615,-0.0645,-0.0674,-0.0706,-0.0721,-0.078,-0.0745,-0.0844,-0.0854,-0.0863,-0.0868,-0.0868,-0.0878,-0.0764,-0.0764,-0.0764,0,0,-0.0493,-0.0491,-0.0491,-0.0497,-0.0511,-0.0532,-0.0535,-0.0571,-0.0595,-0.0595,-0.0641,-0.0672,-0.0688,-0.0753,-0.0783,-0.0773,-0.0872,-0.0867,-0.0874,-0.0875,-0.0872,-0.0883,-0.0893,-0.0766,-0.0766,-0.0765,0,0,-0.0494,-0.0491,-0.0491,-0.0507,-0.0537,-0.0554,-0.0569,-0.0608,-0.0628,-0.0674,-0.0685,-0.0746,-0.0797,-0.083,-0.0849,-0.0918,-0.091,-0.0958,-0.1038,-0.1039,-0.1048,-0.1056,-0.1005,-0.1008,-0.0983,-0.0983,-0.0983,0,-0.0496,-0.0494,-0.0497,-0.051,-0.0527,-0.0566,-0.0589,-0.0612,-0.066,-0.0697,-0.0702,-0.0809,-0.083,-0.0907,-0.0953,-0.0946,-0.093,-0.0996,-0.1053,-0.106,-0.1066,-0.1012,-0.1014,-0.0989,-0.0988,-0.0987,-0.0987,0,-0.0502,-0.0509,-0.0516,-0.0538,-0.0558,-0.0592,-0.0625,-0.067,-0.0718,-0.0768,-0.086,-0.0886,-0.0959,-0.0999,-0.1008,-0.1097,-0.1062,-0.105,-0.1024,-0.1084,-0.1023,-0.1023,-0.0996,-0.0994,-0.0993,-0.0991,0,0,-0.0491,-0.0512,-0.0518,-0.0531,-0.0582,-0.0602,-0.0652,-0.0716,-0.0777,-0.0854,-0.0926,-0.1018,-0.1079,-0.1101,-0.1135,-0.1169,-0.1205,-0.1162,-0.116,-0.1114,-0.1185,-0.1011,-0.0993,-0.1223,-0.1224,-0.1225,-0.1117,0,-0.0497,-0.0511,-0.0529,-0.0569,-0.0581,-0.0636,-0.0679,-0.0757,-0.0832,-0.0916,-0.0988,-0.1064,-0.11,-0.1158,-0.1205,-0.12,-0.1215,-0.1233,-0.1131,-0.1127,-0.0967,-0.099,-0.1229,-0.1116,-0.1116,-0.1116,-0.1116,0,-0.0499,-0.0505,-0.0537,-0.058,-0.0595,-0.0654,-0.0751,-0.0801,-0.0928,-0.0985,-0.1099,-0.114,-0.1219,-0.1221,-0.1247,-0.1268,-0.1245,-0.1228,-0.1223,-0.1024,-0.0952,-0.1047,-0.1114,-0.1114,-0.1115,-0.1115,-0.1115,0,-0.0477,-0.051,-0.0534,-0.0553,-0.0619,-0.0679,-0.0744,-0.0868,-0.0904,-0.1048,-0.1082,-0.1193,-0.1208,-0.1235,-0.1212,-0.1245,-0.1194,-0.121,-0.1015,-0.1,-0.1144,-0.1137,-0.1205,-0.1205,-0.1206,-0.1206,-0.1206,0,-0.0463,-0.0485,-0.0547,-0.0567,-0.0629,-0.07,-0.08,-0.0878,-0.0984,-0.0992,-0.1134,-0.1099,-0.1218,-0.1193,-0.1204,-0.1084,-0.1171,-0.1016,-0.0967,-0.1186,-0.1185,-0.1142,-0.1136,-0.1202,-0.1203,-0.1203,-0.1204,0,-0.0441,-0.047,-0.0512,-0.0597,-0.0623,-0.0699,-0.0796,-0.0843,-0.0962,-0.0959,-0.098,-0.1036,-0.0972,-0.1032,-0.1023,-0.1005,-0.0948,-0.0878,-0.1068,-0.1033,-0.0758,-0.0759,-0.0658,-0.0651,-0.0645,-0.064,-0.0636,0,-0.0426,-0.0444,-0.0527,-0.054,-0.0596,-0.0688,-0.0717,-0.0836,-0.0829,-0.0841,-0.0779,-0.0769,-0.0769,-0.0647,-0.0727,-0.0713,-0.0708,-0.0697,-0.0787,-0.0742,-0.0706,-0.0716,-0.0725,-0.0627,-0.0625,-0.0624,-0.0622,0,-0.041,-0.0463,-0.0496,-0.0519,-0.0563,-0.0561,-0.0597,-0.0587,-0.0633,-0.0695,-0.0556,-0.0541,-0.045,-0.048,-0.0481,-0.0473,-0.0736,-0.0636,-0.065,-0.0735,-0.0703,-0.0675,-0.0691,-0.0602,-0.0605,-0.0607,-0.0608,0,-0.0414,-0.0439,-0.0481,-0.049,-0.0501,-0.044,-0.048,-0.0413,-0.0428,-0.0421,-0.0324,-0.0331,-0.0355,-0.0338,-0.0315,-0.0324,-0.0331,-0.0371,-0.0399,-0.0423,-0.0405,-0.0335,-0.0065,0,0,0,0,0,-0.0399,-0.0403,-0.0415,-0.0422,-0.0411,-0.0401,-0.0363,-0.0384,-0.0385,-0.0242,-0.0299,-0.0192,-0.016,-0.0178,-0.0141,-0.0223,-0.036,-0.0179,-0.0428,-0.0489,-0.0513,-0.0519,0,0,0,0,0,0,-0.0392,-0.042,-0.041,-0.0344,-0.0312,-0.0282,-0.0258,-0.0249,-0.0175,-0.0177,-0.0164,-0.0157,-0.015,-0.0172,-0.0132,-0.0137,-0.028,-0.0185,-0.0182,-0.0476,-0.0497,-0.0516,-0.0531,0,0,0,0,0]},{"header":{"parameterUnit":"m.s-1","parameterCategory":2,"la1":30.2991,"la2":30.254,"lo1":-89.0895,"lo2":-89.0444,"dy":0.0017,"dx":0.0017,"nx":28,"ny":28,"refTime":"2023-08-17T21:00:00:Z","depth":"4","parameterNumber":3,"parameterNumberName":"V-component_of_CURRENTS"},"data":[0,0,0,0,0,0,0,0,0,0,0,0,0,0,0,0,0,0,0,0,0,0,0,0,0,0,0,0,0,0,0,0,0,0,0,0,0,0,0,0,0,0,0,0,0,0,0,0,0,0,0,0,0,0,0,0,0,0,0.011,0.011,0,0.0093,0.0093,0.0093,0.011,0.011,0.0111,0.0111,0.0128,0.0128,0.0128,0,0,0,0,0,0,0,0,0,0,0,0,0,0.019,0.0188,0.011,0.011,0.011,0.0093,0.0093,0.0093,0.0109,0.011,0.0111,0.0112,0.0128,0.0128,0.0128,0,0,0,0,0,0,0,0,0,0,0,0,0,0.0163,0.0188,0.011,0.0116,0.0116,0.0093,0.0093,0.0093,0.0109,0.011,0.0111,0.0112,0.0128,0.0128,0.0128,0.0108,0,0,0.0127,0.0127,0,0,0,0,0,0,0,0,0.0164,0.016,0.0115,0.0115,0.0116,0.0104,0.0127,0.0099,0.0109,0.0112,0.0111,0.0112,0.0122,0.0122,0.0117,0.0108,0.0109,0.0127,0.0127,0.0127,0.0127,0,0,0,0,0,0,0,0.0166,0.0161,0.0104,0.0115,0.0115,0.013,0.0127,0.0122,0.0113,0.0112,0.0113,0.011,0.0123,0.0117,0.0118,0.0109,0.0127,0.0127,0.0127,0.0127,0.0075,0.0074,0,0,0,0,0,0,0.0164,0.0162,0.0104,0.0103,0.0142,0.0128,0.0125,0.0107,0.0112,0.0114,0.0109,0.0111,0.0117,0.0118,0.0119,0.0108,0.0127,0.0126,0.0126,0.0076,0.0074,0.0073,0,0,0,0,0,0,0.0166,0.0158,0.0105,0.0133,0.0128,0.0125,0.0106,0.0106,0.0106,0.011,0.0112,0.011,0.0118,0.0119,0.0104,0.0108,0.0126,0.0126,0.0077,0.0075,0.0074,0.0078,0,0,0,0,0,0,0.0168,0.0159,0.0152,0.0132,0.0126,0.0094,0.0105,0.0105,0.0103,0.0105,0.0111,0.0113,0.0119,0.0104,0.0104,0.0108,0.0126,0.0079,0.0077,0.0074,0.008,0.0077,0.0074,0,0,0,0,0,0.017,0.0152,0.0151,0.0145,0.0114,0.0094,0.0092,0.0095,0.0102,0.0099,0.0094,0.0113,0.009,0.0103,0.0103,0.0107,0.008,0.0077,0.0075,0.0081,0.0077,0.0074,0,0,0,0,0,0,0.0176,0.0151,0.015,0.0123,0.0113,0.0097,0.0093,0.0093,0.0086,0.009,0.0095,0.0096,0.008,0.0085,0.0099,0.0081,0.0089,0.0086,0.0093,0.009,0.0087,0.0115,0.0126,0,0,0,0,0,0.0175,0.0157,0.0138,0.0117,0.0111,0.0103,0.0097,0.0098,0.0086,0.0085,0.0085,0.008,0.0065,0.0072,0.0056,0.0053,0.0069,0.0053,0.005,0.0048,0.0067,0.0093,0.0096,0.0064,0.0064,0.0064,0,0,0.0167,0.0155,0.0142,0.0119,0.011,0.0083,0.0102,0.009,0.0067,0.0087,0.006,0.0064,0.0056,0.0044,0.0039,0.0055,0.0058,0.0045,0.0043,0.0064,0.009,0.0094,0.0097,0.0062,0.0062,0.0063,0,0,0.0146,0.0135,0.0116,0.0099,0.0088,0.0078,0.0075,0.006,0.0057,0.0035,0.0036,0.004,0.0024,0.0023,0.0019,-0.001,0.003,-0.0009,0.0021,0.0045,0.0049,0.0053,0.0054,0.0058,0.0007,0.0007,0.0007,0,0.0141,0.0106,0.0108,0.0081,0.0059,0.0071,0.0036,0.0028,0.0012,0.0006,0.0025,0.0009,0.001,-0.0003,0.0005,-0.0013,0.0013,0.0039,0.0046,0.005,0.0054,0.0055,0.0059,0.0007,0.0007,0.0007,0.0007,0,0.0101,0.0071,0.0056,0.002,0.0001,-0.0024,-0.0041,-0.005,-0.0044,-0.0045,-0.0048,-0.0033,-0.0021,-0.0028,-0.0007,0.0018,0.0028,0.003,0.0065,0.0059,0.0058,0.0062,0.0006,0.0006,0.0006,0.0006,0,0,0.0089,0.0038,0.0032,-0.0001,-0.0035,-0.006,-0.0094,-0.0119,-0.0136,-0.0113,-0.0119,-0.0105,-0.0045,-0.0044,-0.0013,0.0026,0.0074,0.007,0.0071,0.009,0.0133,0.0063,0.0061,0.0102,0.0104,0.0105,0.0114,0,0.0057,-0.0005,-0.0023,-0.0094,-0.0134,-0.0145,-0.0182,-0.0198,-0.0193,-0.0191,-0.0142,-0.0125,-0.0068,-0.0025,0.0022,0.006,0.0092,0.0071,0.0121,0.0122,0.0077,0.0066,0.0109,0.0117,0.0119,0.0119,0.012,0,0.002,-0.0018,-0.0086,-0.016,-0.0177,-0.0208,-0.0255,-0.0277,-0.0268,-0.0248,-0.019,-0.0144,-0.0064,-0.0017,0.0075,0.0075,0.0122,0.0144,0.0144,0.0089,0.0061,0.0128,0.0129,0.0128,0.0127,0.0127,0.0126,0,0.0006,-0.007,-0.0124,-0.0152,-0.0222,-0.0245,-0.0264,-0.0283,-0.0293,-0.0242,-0.0222,-0.0141,-0.0077,0.0004,0.0087,0.0108,0.016,0.0175,0.0136,0.013,0.0193,0.0189,0.0228,0.0228,0.0228,0.0228,0.0228,0,-0.0033,-0.0084,-0.0128,-0.0164,-0.0221,-0.0253,-0.0289,-0.0295,-0.0285,-0.0288,-0.0209,-0.019,-0.0053,-0.0008,0.0071,0.0113,0.015,0.0143,0.0133,0.0187,0.0183,0.0195,0.0191,0.0229,0.0229,0.0229,0.0228,0,-0.0059,-0.0086,-0.0156,-0.0216,-0.023,-0.0261,-0.0291,-0.0313,-0.0288,-0.0281,-0.0243,-0.0196,-0.0128,-0.0055,0.0042,0.0073,0.012,0.0116,0.0146,0.0136,0.008,0.0076,0.0091,0.0089,0.0087,0.0085,0.0084,0,-0.0086,-0.0117,-0.0179,-0.0192,-0.0215,-0.025,-0.0276,-0.0293,-0.0299,-0.0298,-0.029,-0.0241,-0.0199,-0.012,-0.0053,0.0039,0.0051,0.0068,0.0112,0.008,0.0069,0.0068,0.0066,0.0081,0.008,0.008,0.0079,0,-0.0144,-0.015,-0.0202,-0.019,-0.0218,-0.0278,-0.0297,-0.0294,-0.0306,-0.0313,-0.0291,-0.0253,-0.0223,-0.0142,-0.009,-0.0024,0.0062,0.0048,0.0054,0.0096,0.0068,0.0059,0.0059,0.0073,0.0074,0.0074,0.0075,0,-0.0181,-0.0207,-0.0213,-0.0194,-0.0211,-0.0235,-0.0287,-0.029,-0.0303,-0.0283,-0.0297,-0.0255,-0.0235,-0.0183,-0.0138,-0.008,-0.0051,-0.0011,-0.0002,0.0006,-0.0026,-0.0074,-0.0117,0,0,0,0,0,-0.0195,-0.0188,-0.0198,-0.0195,-0.0191,-0.0167,-0.0255,-0.0304,-0.0321,-0.0296,-0.0279,-0.0247,-0.0196,-0.0194,-0.0139,-0.0179,-0.0052,-0.012,-0.0002,0.0035,0.0043,0.0013,0,0,0,0,0,0,-0.0218,-0.0224,-0.0198,-0.014,-0.0081,-0.0116,-0.0137,-0.0199,-0.0183,-0.0194,-0.0163,-0.0193,-0.014,-0.016,-0.0098,-0.0098,-0.0019,-0.0107,-0.0107,0.0031,0.0038,0.0044,0.0016,0,0,0,0,0]}]]